This is the latest recevied weather packets stored in our database for station/object DB0LS-15. If no packets are shown the sender has not sent any weather packets the latest 10 day(s).
| Time | Temp. | Humidity | Pressure | Rain* | Wind** | Luminosity | Snow |
|---|---|---|---|---|---|---|---|
| 1777544447 | 13.33° C | 41% | 1015 hPa | 0 mm | - | - | - |
| 1777543843 | 13.33° C | 40% | 1015.1 hPa | 0 mm | - | - | - |
| 1777543240 | 12.78° C | 38% | 1015.2 hPa | 0 mm | - | - | - |
| 1777542032 | 12.22° C | 39% | 1015.4 hPa | 0 mm | - | - | - |
| 1777541428 | 12.22° C | 39% | 1015.4 hPa | 0 mm | - | - | - |
| 1777540825 | 13.33° C | 38% | 1015.6 hPa | 0 mm | - | - | - |
| 1777540221 | 11.67° C | 40% | 1015.7 hPa | 0 mm | - | - | - |
| 1777539617 | 12.78° C | 39% | 1015.6 hPa | 0 mm | - | - | - |
| 1777539074 | 11.11° C | 40% | 1015.7 hPa | 0 mm | - | - | - |
| 1777537866 | 10.56° C | 40% | 1015.8 hPa | 0 mm | - | - | - |
| 1777537262 | 10.56° C | 40% | 1015.9 hPa | 0 mm | - | - | - |
| 1777536659 | 10.56° C | 41% | 1015.9 hPa | 0 mm | - | - | - |
| 1777536055 | 10° C | 41% | 1015.9 hPa | 0 mm | - | - | - |
| 1777534847 | 10° C | 43% | 1016.2 hPa | 0 mm | - | - | - |
| 1777534244 | 9.44° C | 43% | 1016.3 hPa | 0 mm | - | - | - |
| 1777533640 | 8.89° C | 47% | 1016.3 hPa | 0 mm | - | - | - |
| 1777533036 | 8.33° C | 49% | 1016.3 hPa | 0 mm | - | - | - |
| 1777532432 | 7.78° C | 50% | 1016.3 hPa | 0 mm | - | - | - |
| 1777531225 | 6.67° C | 54% | 1016.5 hPa | 0 mm | - | - | - |
| 1777530621 | 6.11° C | 54% | 1016.5 hPa | 0 mm | - | - | - |
| 1777530017 | 5.56° C | 52% | 1016.3 hPa | 0 mm | - | - | - |
| 1777529473 | 5.56° C | 53% | 1016.3 hPa | 0 mm | - | - | - |
| 1777528869 | 5° C | 53% | 1016.2 hPa | 0 mm | - | - | - |
| 1777528265 | 5° C | 52% | 1016 hPa | 0 mm | - | - | - |
| 1777527661 | 5° C | 54% | 1016.1 hPa | 0 mm | - | - | - |
* Rain latest hour (hover to see other rain measurements)
** Current wind speed in m/s (hover to see current wind gust speed)